Wind_Speed
24 25 24 23 22 19 18 17 18 17 15 14 14 15 15 14 13 14 15 14 15 15 17 19 17 17 17 17 18 18 17 17 17
26 26 26 23 23 20 18 18 16 15 15 13 13 14 15 12 13 14 14 14 15 15 17 18 19 18 18 17 17 17 17 17 17
28 28 27 24 22 20 20 18 18 17 15 13 14 13 14 13 14 14 15 15 15 16 16 17 18 18 19 18 18 17 17 17 17
29 29 27 25 22 19 17 18 18 17 15 16 15 14 16 12 13 15 15 14 15 15 16 16 17 17 17 18 18 17 17 17 16
31 31 30 27 23 22 20 19 19 17 17 17 16 16 17 12 14 13 15 14 15 15 15 15 16 16 16 17 18 16 17 17 16
30 29 30 28 24 24 21 19 18 18 18 18 17 16 11 13 12 13 17 15 14 15 15 15 15 15 15 16 16 16 16 16 16
29 31 32 29 26 25 23 21 20 17 16 16 18 10 13 11 12 14 15 15 15 14 14 15 15 14 14 15 15 15 15 15 16
32 32 33 27 27 22 23 24 19 16 16 18 14 14 13 12 12 15 16 14 14 14 14 14 14 14 13 13 14 14 14 14 14
34 31 33 30 30 24 24 24 20 18 17 17 16 16 14 13 13 15 15 15 13 13 14 13 13 12 13 12 12 13 13 13 13
34 30 32 30 30 27 25 23 21 20 19 18 18 17 15 14 14 15 16 15 14 13 12 12 12 11 11 11 11 11 11 12 11
36 32 32 31 30 28 26 24 22 21 20 19 18 17 16 16 14 18 16 15 13 12 12 11 11 11 10 10 10 10 10 10 10
9 34 36 36 32 27 24 24 22 20 19 19 18 17 17 16 17 18 17 15 14 12 11 11 10 10 10 9 9 8 8 8 8
23 30 39 38 40 32 26 26 25 23 20 19 18 17 16 16 16 16 16 16 14 13 12 11 10 9 9 9 9 8 8 7 6
30 27 33 41 42 35 31 27 26 26 23 20 18 16 16 16 16 15 17 17 16 13 13 12 11 10 9 9 8 7 7 6 5
32 24 13 44 43 35 33 30 26 25 24 21 17 14 13 14 16 15 15 14 15 13 14 13 11 12 9 9 8 8 7 6 6
27 28 29 37 45 41 39 35 32 26 26 22 13 9 10 13 15 15 15 14 14 13 13 12 11 12 12 10 9 8 7 6 5
27 29 27 20 41 45 38 37 33 25 32 20 15 3 4 11 13 15 16 16 15 15 15 14 13 12 11 11 12 9 7 6 4
23 32 30 23 34 44 42 44 39 29 32 28 13 5 7 11 15 20 17 17 17 17 16 16 15 14 13 14 14 14 11 8 6
20 30 29 30 35 41 46 45 43 32 33 30 17 11 13 7 5 17 24 19 19 19 17 17 18 18 16 16 15 16 14 12 8
21 24 33 33 35 36 46 44 43 37 39 35 27 14 11 13 5 6 17 20 22 22 21 19 19 22 21 19 21 19 16 14 12
Wind_Direction
178 173 170 167 161 161 152 152 146 144 134 133 135 132 116 100 102 102 103 104 103 100 99 99 95 93 90 88 88 90 89 83 80
183 179 176 176 170 168 156 152 154 155 145 149 146 139 120 114 111 108 106 107 107 106 103 102 102 97 93 88 88 88 88 87 82
187 185 181 182 181 177 166 171 158 153 158 158 152 144 123 116 116 114 112 119 110 108 107 106 103 102 102 97 91 88 86 84 84
192 191 186 181 180 171 175 164 162 154 163 157 154 145 127 127 122 117 118 120 118 114 113 109 106 105 102 101 97 96 93 86 82
195 194 189 188 182 164 165 167 160 161 161 157 155 148 127 133 127 123 130 132 124 121 116 113 109 107 105 102 101 98 96 93 91
196 189 192 191 181 167 169 171 171 168 160 158 154 139 144 138 134 132 139 132 129 126 122 118 114 113 110 107 105 102 99 96 91
193 190 193 192 181 174 171 175 180 161 158 158 157 157 151 143 139 141 144 138 135 131 127 123 120 118 115 113 108 106 103 98 96
190 188 189 181 180 173 173 182 174 172 169 164 169 163 155 150 144 151 150 146 140 137 132 128 125 123 118 115 111 107 104 99 95
192 184 182 177 177 179 180 182 179 177 174 173 170 166 161 156 151 158 161 150 147 143 138 134 132 128 123 117 112 108 104 100 97
195 189 181 181 179 180 183 184 183 177 173 175 174 170 166 161 156 159 167 157 153 149 144 140 136 131 127 124 119 113 110 107 101
196 189 185 181 182 182 182 183 183 178 176 176 178 173 168 164 161 166 169 166 159 156 153 149 144 140 136 129 124 120 117 111 109
345 196 188 183 179 181 182 180 181 180 178 178 177 174 171 167 165 169 170 172 172 165 162 156 154 150 146 139 132 125 122 121 118
319 335 190 186 182 178 182 181 178 178 180 177 178 177 176 174 171 173 173 176 175 175 176 166 164 162 156 151 146 141 135 128 123
317 338 199 186 187 179 180 183 182 176 177 177 177 179 181 180 178 179 181 183 181 179 184 179 176 174 168 164 159 153 145 139 132
318 309 277 185 186 180 177 177 185 182 175 169 168 171 177 183 186 187 188 192 191 189 185 187 191 184 180 176 173 169 163 160 146
308 297 303 195 185 182 181 176 174 177 170 153 146 148 170 184 191 195 197 197 194 195 192 190 192 194 187 189 186 186 181 174 167
296 295 295 249 187 184 182 169 166 170 173 174 147 145 198 202 194 200 203 204 203 201 201 200 197 192 193 200 197 194 195 190 185
291 297 300 321 205 183 180 172 174 175 184 180 156 160 209 170 212 210 207 207 210 209 209 207 205 203 201 203 206 199 194 199 203
281 282 288 297 222 190 181 183 181 178 180 184 200 196 152 180 181 218 216 215 216 213 213 213 214 213 211 209 208 215 216 219 220
278 284 278 288 220 207 186 186 183 182 184 186 186 181 183 181 162 184 198 218 220 218 216 217 216 219 219 222 225 226 227 231 238
Height
828 829 831 832 833 835 836 838 840 842 844 845 845 846 846 848 848 848 849 851 853 853 852 852 853 853 854 854 854 853 854 855 855
829 830 831 832 834 835 837 839 841 843 845 846 847 848 848 850 850 851 853 854 855 856 856 855 854 856 856 857 857 857 857 857 858
828 830 830 833 835 836 838 840 842 844 845 846 849 850 851 852 852 854 855 857 858 858 858 858 858 858 857 859 860 860 861 861 861
828 830 832 832 835 837 839 841 843 845 846 847 850 851 853 854 854 855 857 859 860 861 861 861 861 861 862 861 862 862 863 863 865
826 830 832 833 835 837 841 843 844 846 847 849 851 853 854 856 857 857 860 861 862 863 864 864 863 864 865 865 864 866 866 866 866
825 828 831 833 835 837 841 844 846 847 848 850 853 855 857 858 859 860 861 863 864 865 865 866 867 867 867 867 867 868 868 868 868
822 825 828 832 835 837 841 844 846 849 851 853 855 857 858 859 860 861 863 865 866 867 868 868 869 869 869 870 870 870 871 870 870
818 821 825 830 834 838 841 844 846 849 851 853 856 857 859 860 861 863 865 866 867 868 869 870 870 871 872 872 872 873 873 872 872
814 816 821 825 829 835 840 842 845 848 851 853 855 857 858 860 862 864 866 867 869 870 871 872 872 873 873 874 875 874 875 875 875
810 814 818 822 826 831 836 841 843 846 849 852 854 856 858 860 862 865 867 869 870 871 873 873 874 875 876 875 876 877 877 877 876
806 810 814 818 823 828 832 838 842 844 847 850 854 855 857 859 862 864 868 870 871 872 873 875 875 876 877 878 878 878 878 878 877
800 807 809 812 818 825 831 835 840 844 846 849 853 855 858 859 861 864 867 870 872 873 874 875 877 878 878 878 879 879 879 879 878
801 801 800 806 812 819 827 831 836 840 845 849 852 855 858 860 862 865 867 869 872 874 874 876 878 879 879 879 879 879 879 880 880
801 798 796 801 807 812 820 828 833 836 842 847 852 855 857 860 862 865 867 869 870 872 874 876 877 878 879 880 880 880 880 879 879
800 796 795 793 800 807 813 821 830 834 839 846 851 854 857 859 862 865 867 869 870 871 873 875 877 877 879 880 880 880 880 880 879
790 793 793 788 791 798 806 813 822 831 836 843 850 854 856 858 861 863 866 868 870 871 872 873 875 876 878 879 880 880 880 880 880
795 793 789 788 784 791 801 804 816 825 830 832 844 853 857 855 857 860 863 865 867 868 869 871 873 875 876 878 879 879 881 881 881
785 781 784 781 785 782 791 794 803 814 822 826 827 843 840 849 853 855 859 861 863 865 867 868 870 872 874 874 876 878 879 880 880
784 783 779 779 783 778 780 788 795 804 814 821 823 825 826 835 846 851 853 857 859 862 863 865 866 868 871 873 873 874 876 877 879
776 773 776 774 773 778 773 781 787 795 805 809 816 822 825 825 827 834 846 852 854 856 858 860 862 864 866 869 871 872 874 875 877